Snowfall_Accumulation
0.0 0.0 0.0 0.0 0.0 0.0 0.0 0.0 0.0 0.0 0.0 0.0 0.0 0.0 0.0 0.0 0.0 0.0 0.0 0.0 0.0 0.0 0.0 0.0 0.0 0.0 0.0 0.0 0.0 0.0 0.0 0.0 0.0 0.0 0.0 0.0 0.0 0.0 0.0 0.0 0.0 0.0 0.0 0.0
0.0 0.0 0.0 0.0 0.0 0.0 0.0 0.0 0.1 0.0 0.0 0.0 0.0 0.0 0.0 0.0 0.0 0.0 0.0 0.0 0.0 0.0 0.0 0.0 0.0 0.0 0.0 0.0 0.0 0.0 0.0 0.0 0.0 0.0 0.0 0.0 0.0 0.0 0.0 0.0 0.0 0.0 0.0 0.0
0.0 0.0 0.0 0.0 0.0 0.0 0.0 0.0 0.0 0.0 0.0 0.0 0.0 0.1 0.0 0.0 0.0 0.0 0.0 0.0 0.0 0.0 0.0 0.0 0.0 0.0 0.0 0.0 0.0 0.0 0.0 0.0 0.0 0.0 0.0 0.0 0.0 0.0 0.0 0.0 0.0 0.0 0.0 0.0
0.0 0.0 0.0 0.0 0.0 0.0 0.1 0.0 0.0 0.0 1.0 2.0 0.0 3.0 0.0 0.0 0.0 0.0 0.0 0.0 0.0 0.0 0.0 0.0 0.0 0.0 0.0 0.0 0.0 0.0 0.0 0.0 0.0 0.0 0.0 0.0 0.0 0.0 0.0 0.0 0.0 0.0 0.0 0.0
0.0 0.0 0.0 0.0 0.0 0.0 0.0 0.0 0.0 0.0 0.6 0.8 0.1 3.6 0.0 0.0 0.0 0.0 0.0 0.0 0.0 0.0 0.0 0.0 0.0 0.0 0.0 0.0 0.0 0.0 0.0 0.0 0.0 0.0 0.0 0.0 0.0 0.0 0.0 0.0 0.0 0.0 0.0 0.0
0.0 0.0 0.0 0.0 0.0 0.0 0.0 0.0 0.0 0.1 0.1 7.9 0.7 0.4 0.3 0.0 0.0 0.0 0.0 0.0 0.0 0.0 0.0 0.0 0.0 0.0 0.0 0.0 0.0 0.0 0.0 0.0 0.0 0.0 0.0 0.0 0.0 0.0 0.0 0.0 0.0 0.0 0.0 0.0
0.0 0.0 0.0 0.0 0.0 0.0 0.1 0.2 3.6 3.1 8.2 2.5 0.1 0.4 0.2 0.0 0.0 0.0 0.0 0.0 0.0 0.0 0.0 0.0 0.0 0.0 0.0 0.0 0.0 0.0 0.0 0.0 0.0 0.0 0.0 0.0 0.0 0.0 0.0 0.0 0.0 0.0 0.0 0.0
0.5 0.5 0.0 0.0 0.1 1.1 0.1 1.5 3.3 3.1 0.9 0.2 0.0 1.4 0.5 0.0 0.0 0.0 0.0 0.0 0.0 0.0 0.0 0.0 0.0 0.0 0.0 0.0 0.0 0.0 0.0 0.0 0.0 0.0 0.0 0.0 0.0 0.0 0.0 0.0 0.0 0.0 0.0 0.0
0.8 0.1 0.0 0.0 0.0 0.0 0.1 1.8 0.0 2.5 0.3 2.3 0.1 0.0 0.0 0.0 0.0 0.0 0.0 0.0 0.0 0.0 0.0 0.0 0.0 0.0 0.0 0.0 0.0 0.0 0.0 0.0 0.0 0.0 0.0 0.0 0.0 0.0 0.0 0.0 0.0 0.0 0.0 0.0
0.1 0.8 0.0 0.0 0.0 0.0 0.2 0.1 2.2 4.7 7.5 1.2 0.0 0.3 0.5 0.0 0.0 0.0 0.0 0.0 0.0 0.0 0.0 0.0 0.0 0.0 0.0 0.0 0.0 0.0 0.0 0.0 0.0 0.0 0.0 0.0 0.0 0.0 0.0 0.0 0.0 0.0 0.0 0.0
0.3 1.1 0.0 0.0 0.3 1.7 1.1 6.8 1.7 1.3 1.7 4.3 1.8 1.1 0.3 0.2 0.1 0.2 0.0 0.0 0.0 0.0 0.0 0.0 0.0 0.0 0.0 0.0 0.0 0.0 0.0 0.0 0.0 0.0 0.0 0.0 0.0 0.0 0.0 0.0 0.0 0.0 0.0 0.0
0.1 0.7 2.8 0.1 0.8 0.9 0.4 1.5 1.4 2.3 2.9 1.9 4.3 6.0 0.1 0.8 1.4 2.4 0.8 0.2 0.0 0.0 0.0 0.0 0.0 0.0 0.0 0.0 0.0 0.0 0.0 0.0 0.0 0.0 0.0 0.0 0.0 0.0 0.0 0.0 0.0 0.0 0.0 0.0
2.2 1.2 1.3 0.5 1.1 0.3 2.5 2.5 4.5 1.6 1.5 4.3 16.4 8.1 0.1 0.3 0.9 1.6 1.5 0.2 0.1 0.1 0.0 0.0 0.0 0.0 0.0 0.0 0.0 0.0 0.0 0.0 0.0 0.0 0.0 0.0 0.0 0.0 0.0 0.0 0.0 0.0 0.0 0.0
nan 0.3 1.2 2.4 1.0 0.9 5.4 2.8 3.0 5.2 14.4 3.4 9.2 7.5 2.1 0.9 0.8 0.7 0.4 0.6 0.6 0.7 0.6 0.3 0.2 0.1 0.1 0.1 0.1 0.2 0.2 0.2 0.1 0.1 0.0 0.0 0.0 0.0 0.0 0.0 0.0 0.0 0.0 0.0
0.2 2.3 0.0 0.0 0.1 0.4 2.2 5.4 3.2 12.7 6.2 12.1 11.3 10.1 6.1 5.6 9.5 7.2 6.4 4.1 2.0 2.0 3.1 1.6 1.4 0.8 0.6 0.7 0.6 0.6 0.5 0.3 0.2 0.1 0.3 0.3 0.1 0.0 0.1 0.1 0.1 0.1 0.1 0.1
0.0 2.1 1.9 2.6 0.2 1.8 6.1 2.5 2.5 2.7 3.2 4.7 4.9 8.1 4.1 5.9 4.6 5.4 4.2 4.3 3.4 4.4 3.2 2.6 1.8 0.9 1.1 1.2 1.3 1.1 1.3 1.0 0.7 0.9 1.0 0.8 0.7 0.6 0.7 0.7 0.6 0.5 0.4 0.3
1.8 1.7 4.7 1.7 0.2 0.9 7.2 12.2 6.3 4.7 8.1 8.1 15.2 9.6 6.3 6.3 5.9 6.6 5.2 6.4 8.6 7.3 6.2 6.1 3.4 2.6 1.7 1.5 1.3 1.8 1.4 1.2 1.6 1.6 1.5 1.5 1.4 1.2 1.0 0.8 0.7 0.5 0.4 0.2
0.7 1.9 2.1 3.9 0.9 11.5 4.6 1.0 4.1 9.5 8.8 8.5 7.6 10.6 7.9 8.1 4.3 5.1 6.0 9.9 9.3 10.9 8.6 7.9 5.4 5.1 1.5 1.3 1.4 1.4 1.5 1.5 1.3 1.3 1.0 0.9 1.0 1.0 0.9 0.8 0.6 0.5 0.3 0.2
0.0 0.3 6.3 9.1 2.2 0.1 0.2 0.2 2.7 11.9 7.5 3.7 8.0 5.8 4.4 2.1 1.1 0.9 0.3 3.1 7.7 11.0 11.7 10.8 10.2 8.1 4.0 2.1 1.8 1.8 1.6 1.3 1.1 0.9 0.7 0.7 0.7 0.8 0.7 0.6 0.5 0.3 0.2 0.1
0.1 0.3 2.9 4.0 7.9 4.7 0.4 0.0 0.0 0.9 9.0 0.7 4.5 3.8 4.7 2.5 6.7 2.0 1.6 4.0 6.9 8.9 13.5 17.8 12.2 8.6 4.4 1.5 1.2 1.3 0.9 0.9 0.7 0.6 0.7 0.7 0.6 0.5 0.4 0.2 0.1 0.0 0.1 0.1
1.8 3.3 5.1 1.8 8.7 1.3 0.3 0.5 0.4 2.8 2.3 0.7 1.8 3.0 6.7 13.3 6.3 2.6 2.5 2.9 4.4 8.6 14.3 13.7 10.6 10.2 5.9 2.5 2.4 0.8 0.8 0.7 0.4 0.4 0.4 0.4 0.3 0.3 0.1 0.0 0.1 0.1 0.2 0.2
4.3 3.4 3.0 2.8 7.8 8.5 0.0 0.0 1.8 1.0 0.0 0.2 0.5 2.7 6.6 1.9 2.2 2.2 2.1 4.6 8.6 11.4 17.3 18.5 17.3 12.1 11.1 5.3 4.8 2.5 1.8 0.8 0.5 0.5 0.4 0.3 0.2 0.1 0.0 0.1 0.1 0.1 0.2 0.5
10.2 1.9 2.9 0.3 0.5 0.1 0.1 0.2 0.2 0.1 0.3 0.5 1.7 1.0 2.0 1.3 0.9 0.5 2.6 4.2 7.2 10.0 17.2 19.7 21.1 18.4 11.9 7.9 4.2 4.5 1.1 0.7 0.4 0.3 0.5 0.4 0.1 0.1 0.1 0.2 0.2 0.7 0.2 1.1
0.2 0.1 1.0 1.1 0.2 0.6 0.3 0.1 0.0 0.0 0.2 0.6 0.5 0.6 0.2 2.2 0.4 0.3 0.4 2.3 5.7 7.8 16.8 22.2 19.4 19.1 15.4 13.6 8.0 4.8 2.2 0.7 0.8 0.9 1.1 0.5 0.7 0.3 0.2 0.4 0.4 0.8 1.0 1.3
0.5 0.4 0.2 0.4 1.3 0.7 0.4 0.1 0.0 0.2 0.4 0.3 0.1 0.1 0.8 0.7 0.3 0.6 0.8 1.7 4.7 7.6 11.9 20.1 24.2 22.9 17.8 17.1 15.7 8.4 4.0 1.3 1.0 0.7 1.5 1.2 1.1 0.8 1.0 0.6 1.0 1.2 0.4 1.3
0.6 0.8 1.8 1.7 0.5 1.6 0.3 0.1 0.0 0.3 0.3 0.2 0.7 0.7 0.2 0.9 1.6 0.9 1.2 1.3 4.2 7.6 9.7 14.6 20.9 21.2 20.7 20.5 19.5 14.4 8.1 2.3 2.2 1.0 1.0 1.8 2.0 2.1 1.8 1.8 1.3 nan nan nan
Water_Equivalent
0.00 0.00 0.00 0.00 0.00 0.00 0.00 0.00 0.00 0.00 0.00 0.00 0.00 0.00 0.00 0.00 0.00 0.00 0.00 0.00 0.00 0.00 0.00 0.00 0.00 0.00 0.00 0.00 0.00 0.00 0.00 0.00 0.00 0.00 0.00 0.00 0.00 0.00 0.00 0.00 0.00 0.00 0.00 0.00
0.00 0.00 0.00 0.00 0.00 0.00 0.00 0.00 0.02 0.00 0.00 0.00 0.00 0.00 0.00 0.00 0.00 0.00 0.00 0.00 0.00 0.00 0.00 0.00 0.00 0.00 0.00 0.00 0.00 0.00 0.00 0.00 0.00 0.00 0.00 0.00 0.00 0.00 0.00 0.00 0.00 0.00 0.00 0.00
0.00 0.00 0.00 0.00 0.00 0.00 0.00 0.01 0.01 0.01 0.00 0.00 0.00 0.02 0.00 0.00 0.00 0.00 0.00 0.00 0.00 0.00 0.00 0.00 0.00 0.00 0.00 0.00 0.00 0.00 0.00 0.00 0.00 0.00 0.00 0.00 0.00 0.00 0.00 0.00 0.00 0.00 0.00 0.00
0.00 0.00 0.00 0.00 0.00 0.00 0.01 0.00 0.00 0.00 0.23 0.45 0.01 0.57 0.00 0.00 0.00 0.00 0.00 0.00 0.00 0.00 0.00 0.00 0.00 0.00 0.00 0.00 0.00 0.00 0.00 0.00 0.00 0.00 0.00 0.00 0.00 0.00 0.00 0.00 0.00 0.00 0.00 0.00
0.00 0.00 0.00 0.00 0.00 0.00 0.01 0.00 0.00 0.00 0.17 0.16 0.01 0.76 0.00 0.00 0.00 0.00 0.00 0.00 0.00 0.00 0.00 0.00 0.00 0.00 0.00 0.00 0.00 0.00 0.00 0.00 0.00 0.00 0.00 0.00 0.00 0.00 0.00 0.00 0.00 0.00 0.00 0.00
0.00 0.00 0.00 0.00 0.00 0.00 0.00 0.00 0.00 0.02 0.03 1.60 0.21 0.09 0.07 0.00 0.00 0.00 0.00 0.00 0.00 0.00 0.00 0.00 0.00 0.00 0.00 0.00 0.00 0.00 0.00 0.00 0.00 0.00 0.00 0.00 0.00 0.00 0.00 0.00 0.00 0.00 0.00 0.00
0.00 0.00 0.00 0.00 0.00 0.00 0.01 0.05 0.79 0.69 1.73 0.51 0.02 0.09 0.05 0.00 0.00 0.00 0.00 0.00 0.00 0.00 0.00 0.00 0.00 0.00 0.00 0.00 0.00 0.00 0.00 0.00 0.00 0.00 0.00 0.00 0.00 0.00 0.00 0.00 0.00 0.00 0.00 0.00
0.12 0.13 0.00 0.00 0.04 0.24 0.01 0.29 0.65 0.51 0.19 0.04 0.00 0.23 0.11 0.00 0.00 0.00 0.00 0.00 0.00 0.00 0.00 0.00 0.00 0.00 0.00 0.00 0.00 0.00 0.00 0.00 0.00 0.00 0.00 0.00 0.00 0.00 0.00 0.00 0.00 0.00 0.00 0.00
0.15 0.01 0.00 0.00 0.00 0.01 0.02 0.39 0.00 0.39 0.05 0.34 0.02 0.00 0.01 0.00 0.00 0.00 0.00 0.00 0.00 0.00 0.00 0.00 0.00 0.00 0.00 0.00 0.00 0.00 0.00 0.00 0.00 0.00 0.00 0.00 0.00 0.00 0.00 0.00 0.00 0.00 0.00 0.00
0.02 0.15 0.00 0.00 0.00 0.01 0.05 0.02 0.44 1.04 1.14 0.16 0.00 0.05 0.09 0.00 0.00 0.00 0.00 0.00 0.00 0.00 0.00 0.00 0.00 0.00 0.00 0.00 0.00 0.00 0.00 0.00 0.00 0.00 0.00 0.00 0.00 0.00 0.00 0.00 0.00 0.00 0.00 0.00
0.06 0.20 0.01 0.00 0.06 0.31 0.23 1.55 0.31 0.26 0.29 0.68 0.27 0.18 0.05 0.04 0.03 0.04 0.01 0.00 0.00 0.00 0.00 0.00 0.00 0.00 0.00 0.00 0.00 0.00 0.00 0.00 0.00 0.00 0.00 0.00 0.00 0.00 0.00 0.00 0.00 0.00 0.00 0.00
0.04 0.13 0.53 0.01 0.17 0.20 0.09 0.31 0.28 0.40 0.41 0.30 0.59 0.73 0.02 0.17 0.27 0.44 0.15 0.04 0.01 0.01 0.00 0.00 0.00 0.00 0.00 0.00 0.00 0.00 0.00 0.00 0.00 0.00 0.00 0.00 0.00 0.00 0.00 0.00 0.00 0.00 0.00 0.00
0.43 0.27 0.25 0.10 0.25 0.06 0.40 0.41 0.70 0.23 0.27 0.53 1.76 1.13 0.02 0.08 0.19 0.40 0.33 0.05 0.04 0.02 0.00 0.00 0.00 0.00 0.00 0.00 0.00 0.00 0.00 0.00 0.00 0.00 0.00 0.00 0.00 0.00 0.00 0.00 0.00 0.00 0.00 0.00
nan 0.07 0.22 0.40 0.17 0.17 0.72 0.37 0.41 0.72 2.17 0.52 1.37 1.09 0.37 0.20 0.16 0.17 0.10 0.14 0.14 0.17 0.14 0.05 0.05 0.02 0.02 0.02 0.03 0.04 0.05 0.04 0.03 0.01 0.00 0.00 0.00 0.00 0.00 0.00 0.00 0.00 0.00 0.00
0.04 0.47 0.00 0.01 0.01 0.08 0.34 0.76 0.45 1.58 0.72 1.35 1.59 1.16 1.08 1.05 1.75 1.44 1.29 0.82 0.38 0.40 0.68 0.32 0.30 0.16 0.12 0.14 0.13 0.11 0.11 0.07 0.04 0.02 0.05 0.05 0.01 0.00 0.02 0.02 0.02 0.03 0.02 0.01
0.01 0.43 0.41 0.50 0.04 0.27 0.62 0.35 0.32 0.32 0.42 0.60 0.68 0.72 0.69 1.13 0.95 1.05 0.80 0.78 0.62 0.88 0.72 0.56 0.35 0.19 0.22 0.24 0.25 0.22 0.22 0.18 0.13 0.16 0.14 0.13 0.11 0.11 0.12 0.11 0.10 0.07 0.06 0.05
0.27 0.29 0.76 0.21 0.03 0.13 1.03 1.20 0.66 0.62 0.94 1.05 1.43 1.46 1.15 1.06 1.04 1.29 0.99 1.20 1.59 1.61 1.33 1.22 0.65 0.49 0.32 0.27 0.23 0.28 0.22 0.20 0.23 0.23 0.21 0.22 0.20 0.17 0.15 0.12 0.10 0.08 0.06 0.04
0.11 0.28 0.35 0.57 0.15 1.40 0.69 0.18 0.54 1.08 0.94 0.91 0.86 1.27 1.29 1.30 0.79 1.04 1.26 1.93 1.81 2.32 1.77 1.52 1.02 0.86 0.26 0.22 0.23 0.20 0.21 0.22 0.19 0.18 0.15 0.13 0.15 0.14 0.12 0.10 0.09 0.07 0.05 0.03
0.01 0.05 0.86 1.12 0.28 0.02 0.03 0.04 0.33 1.02 0.75 0.51 0.84 0.65 0.66 0.37 0.21 0.17 0.08 0.66 1.58 2.32 2.30 2.02 2.04 1.47 0.57 0.31 0.26 0.26 0.22 0.18 0.15 0.12 0.10 0.09 0.10 0.11 0.09 0.08 0.06 0.03 0.03 0.02
0.01 0.06 0.46 0.57 0.77 0.41 0.06 0.00 0.00 0.15 1.03 0.11 0.59 0.53 0.67 0.41 0.68 0.36 0.33 0.86 1.33 1.89 2.62 3.33 2.27 1.25 0.60 0.22 0.17 0.18 0.12 0.12 0.09 0.09 0.10 0.10 0.08 0.07 0.06 0.03 0.02 0.01 0.01 0.02
0.28 0.38 0.61 0.22 0.95 0.17 0.05 0.08 0.07 0.27 0.30 0.11 0.30 0.48 0.92 1.61 1.12 0.54 0.53 0.61 0.95 1.66 2.66 2.85 1.81 1.39 0.80 0.36 0.33 0.11 0.11 0.10 0.06 0.06 0.05 0.06 0.05 0.04 0.01 0.01 0.01 0.02 0.03 0.03
0.47 0.38 0.36 0.32 0.80 0.97 0.01 0.00 0.20 0.17 0.01 0.04 0.10 0.48 0.98 0.33 0.37 0.40 0.39 0.74 1.24 1.72 2.92 3.32 2.63 1.83 1.94 0.80 0.57 0.33 0.28 0.12 0.06 0.06 0.05 0.04 0.03 0.02 0.01 0.02 0.01 0.01 0.03 0.07
1.08 0.29 0.42 0.05 0.07 0.01 0.02 0.04 0.03 0.02 0.06 0.10 0.30 0.18 0.35 0.21 0.15 0.10 0.39 0.56 0.96 1.48 2.60 3.43 3.67 3.27 1.79 1.23 0.69 0.56 0.18 0.09 0.05 0.04 0.07 0.06 0.02 0.02 0.01 0.03 0.03 0.15 0.04 0.18
0.04 0.02 0.17 0.15 0.02 0.10 0.06 0.02 0.00 0.00 0.04 0.12 0.10 0.12 0.04 0.30 0.07 0.05 0.07 0.29 0.69 0.94 2.31 3.42 2.91 2.96 2.30 2.19 1.67 0.89 0.34 0.10 0.10 0.12 0.18 0.07 0.10 0.05 0.04 0.12 0.10 0.17 0.20 0.24
0.10 0.06 0.03 0.05 0.17 0.11 0.07 0.02 0.01 0.05 0.09 0.06 0.01 0.03 0.14 0.12 0.04 0.09 0.11 0.21 0.51 1.00 1.66 2.93 3.53 3.49 2.74 2.77 2.87 1.70 0.72 0.16 0.15 0.14 0.38 0.23 0.23 0.12 0.18 0.15 0.22 0.22 0.08 0.20
0.11 0.13 0.24 0.23 0.08 0.23 0.06 0.02 0.00 0.05 0.06 0.03 0.12 0.09 0.04 0.14 0.20 0.13 0.17 0.18 0.44 0.83 1.34 2.08 3.03 3.17 3.27 3.32 3.31 2.59 1.62 0.32 0.26 0.13 0.27 0.48 0.43 0.42 0.36 0.35 0.30 nan nan nan
SL_Ratio
nan nan nan nan nan nan nan nan nan nan nan nan nan nan nan nan nan nan nan nan nan nan nan nan nan nan nan nan nan nan nan nan nan nan nan nan nan nan nan nan nan nan nan nan
nan nan nan nan nan nan nan 3.3 3.4 nan nan nan nan nan nan nan nan nan nan nan nan nan nan nan nan nan nan nan nan nan nan nan nan nan nan nan nan nan nan nan nan nan nan nan
3.1 nan nan nan nan nan nan 3.5 3.6 3.5 nan nan nan 3.4 nan nan nan nan nan nan nan nan nan nan nan nan nan nan nan nan nan nan nan nan nan nan nan nan nan nan nan nan nan nan
nan nan nan nan nan nan 4.4 nan nan nan 4.4 4.5 3.1 5.2 nan nan nan nan nan nan nan nan nan nan nan nan nan nan nan nan nan nan nan nan nan nan nan nan nan nan nan nan nan nan
5.0 nan nan nan nan nan 4.6 nan nan nan 3.9 5.0 3.7 4.7 3.1 nan nan nan nan nan nan nan nan nan nan nan nan nan nan nan nan nan nan nan nan nan nan nan nan nan nan nan nan nan
nan nan nan nan nan nan nan nan nan 3.0 3.9 4.9 3.5 4.6 4.7 nan nan nan nan nan nan nan nan nan nan nan nan nan nan nan nan nan nan nan nan nan nan nan nan nan nan nan nan nan
nan nan 2.5 nan 3.5 nan 4.1 4.6 4.6 4.5 4.7 5.0 3.1 4.1 4.4 nan nan nan nan nan nan nan nan nan nan nan nan nan nan nan nan nan nan nan nan nan nan nan nan nan nan nan nan nan
4.3 3.5 3.3 nan 4.0 4.6 4.3 5.2 5.1 6.1 4.7 4.1 nan 6.2 4.3 nan nan nan nan nan nan nan nan nan nan nan nan nan nan nan nan nan nan nan nan nan nan nan nan nan nan nan nan nan
5.2 4.2 nan nan nan 3.8 4.4 4.6 nan 6.5 5.4 6.7 5.0 5.0 4.2 nan nan nan nan nan nan nan nan nan nan nan nan nan nan nan nan nan nan nan nan nan nan nan nan nan nan nan nan nan
4.2 5.7 nan nan 3.7 3.4 4.6 4.3 5.1 4.5 6.6 7.1 5.0 6.1 5.5 nan nan nan nan nan nan nan nan nan nan nan nan nan nan nan nan nan nan nan nan nan nan nan nan nan nan nan nan nan
4.3 5.3 4.0 5.0 4.7 5.5 4.9 4.4 5.4 5.0 6.0 6.3 6.7 5.9 4.8 5.2 5.0 5.3 4.5 nan 5.0 nan nan nan nan nan nan nan nan nan nan nan nan nan nan nan nan nan nan nan nan nan nan nan
3.7 5.0 5.3 4.4 5.0 4.6 4.7 4.7 4.9 5.9 7.0 6.2 7.3 8.3 4.3 4.8 5.2 5.4 5.3 4.2 3.9 3.3 nan nan nan nan nan nan nan nan nan nan nan nan nan nan nan nan nan nan nan nan nan nan
5.2 4.4 5.0 5.1 4.4 4.8 6.3 6.0 6.5 7.0 5.6 8.0 9.3 7.2 3.7 4.4 4.9 4.0 4.5 4.0 3.5 3.5 3.7 nan nan nan nan nan nan nan nan nan nan nan nan nan nan nan nan nan nan nan nan nan
nan 4.7 5.6 6.0 5.9 5.0 7.6 7.6 7.4 7.3 6.6 6.6 6.7 6.8 5.7 4.5 5.0 4.1 4.4 4.5 4.4 4.1 4.4 4.6 4.8 4.5 4.8 4.7 4.8 5.0 5.0 4.8 4.7 4.6 4.4 5.0 nan nan nan nan nan nan nan 6.0
4.2 4.8 4.6 5.3 4.9 5.4 6.4 7.1 7.2 8.1 8.6 8.9 7.1 8.7 5.6 5.3 5.4 5.0 4.9 5.1 5.3 5.1 4.6 5.1 4.8 4.7 4.6 5.0 4.9 4.9 4.8 4.9 5.0 5.5 5.9 6.2 5.5 4.3 5.4 5.5 5.3 5.4 5.2 5.3
3.5 4.9 4.5 5.2 5.0 6.8 9.8 7.2 7.7 8.5 7.5 7.9 7.2 11.2 6.0 5.2 4.8 5.1 5.2 5.4 5.6 5.0 4.5 4.7 4.9 4.9 4.9 4.9 5.1 5.2 5.8 5.4 5.4 5.5 6.7 5.8 5.9 5.9 6.2 6.6 6.7 6.6 6.7 6.5
6.7 5.8 6.2 7.9 5.5 6.4 7.0 10.2 9.6 7.6 8.6 7.7 10.6 6.6 5.5 5.9 5.7 5.1 5.3 5.3 5.4 4.6 4.6 4.9 5.3 5.3 5.4 5.6 5.7 6.3 6.3 6.1 6.8 7.0 7.0 7.0 6.9 7.0 7.0 6.9 6.9 6.9 6.9 6.6
6.5 6.6 6.0 6.7 6.1 8.2 6.6 5.9 7.5 8.8 9.4 9.4 8.8 8.3 6.2 6.2 5.4 4.9 4.8 5.1 5.1 4.7 4.8 5.2 5.3 5.9 5.9 6.0 6.4 6.8 7.0 6.9 7.0 7.2 7.2 7.1 7.0 7.2 7.3 7.3 7.3 7.2 7.0 7.0
3.8 6.1 7.3 8.1 7.7 6.2 6.3 5.7 8.3 11.6 10.0 7.2 9.6 8.9 6.7 5.7 5.2 5.2 4.3 4.7 4.9 4.7 5.1 5.3 5.0 5.5 7.0 6.9 6.8 7.0 7.2 7.2 7.3 7.4 7.3 7.1 6.9 7.2 7.6 7.5 7.5 7.3 6.4 6.5
6.5 6.2 6.2 7.0 10.2 11.5 6.6 7.5 4.7 5.9 8.8 6.1 7.7 7.3 6.9 6.2 9.7 5.7 4.9 4.6 5.2 4.7 5.1 5.4 5.4 6.9 7.2 6.7 6.7 7.1 7.2 7.2 7.6 7.4 7.1 7.0 7.2 7.4 7.3 7.5 6.7 5.6 5.5 5.5
6.3 8.8 8.3 8.0 9.1 7.8 6.4 6.0 5.5 10.3 7.7 5.8 6.0 6.3 7.3 8.3 5.6 4.8 4.7 4.8 4.6 5.2 5.4 4.8 5.8 7.3 7.5 7.0 7.2 7.3 7.1 7.2 6.6 6.9 7.3 7.0 6.7 6.5 6.2 5.6 5.5 5.6 6.1 6.2
9.2 9.1 8.3 9.0 9.7 8.8 5.0 5.0 9.4 6.0 5.0 5.1 5.4 5.7 6.7 5.7 5.9 5.6 5.5 6.2 6.9 6.6 5.9 5.6 6.6 6.6 5.7 6.6 8.4 7.7 6.7 6.8 7.2 7.4 7.3 6.8 5.8 6.2 6.4 6.3 6.1 6.0 6.7 7.3
9.4 6.5 6.8 7.1 7.4 5.0 4.9 5.5 5.7 5.6 5.4 5.3 5.5 5.4 5.8 6.1 6.0 5.6 6.6 7.4 7.5 6.8 6.6 5.7 5.7 5.6 6.6 6.4 6.2 8.0 6.0 7.2 7.4 7.4 7.1 6.8 6.3 6.3 6.1 7.3 7.3 4.9 6.9 6.0
5.2 4.7 6.3 7.5 6.5 6.1 5.7 5.4 nan 5.0 4.8 4.9 4.7 5.0 5.1 7.6 5.7 5.8 6.0 8.0 8.3 8.3 7.3 6.5 6.7 6.5 6.7 6.2 4.8 5.4 6.6 7.7 7.6 7.2 6.0 7.0 7.4 6.3 6.0 3.7 3.7 4.9 4.9 5.6
4.8 5.7 5.9 7.1 7.3 6.6 6.1 5.2 5.2 4.7 4.6 4.7 4.5 4.9 5.8 6.2 5.9 6.2 6.8 8.1 9.4 7.7 7.2 6.9 6.8 6.6 6.5 6.2 5.5 5.0 5.5 7.7 7.0 5.0 4.0 5.0 4.7 6.2 5.3 4.3 4.5 5.6 5.2 6.6
5.6 6.3 7.3 7.5 6.0 6.7 6.0 6.1 7.5 5.2 5.5 5.5 6.2 8.0 5.0 6.3 8.1 7.0 7.5 7.6 9.5 9.2 7.3 7.1 6.9 6.7 6.3 6.2 5.9 5.6 5.0 7.2 8.4 8.1 3.8 3.7 4.8 4.9 5.1 5.3 4.2 nan nan nan